Theta_e
306 306 306 306 306 306 307 307 307 307 306 306 305 306 306 305 305 305 306 306 306 307 307 307 307 308 307 308 308 308 307 305 303 303 305 308 303 305 306 307 309 309 311 311 310 309 311 313 311 310 312 314 316 317 316 317 317 316 316 315 315 313 313 316 319 317 316 317 317 314 320 345 357 354 354 354 356 357 358 360 355 355 354 351 351 349 347 346
306 306 306 306 306 306 306 306 307 307 307 306 306 306 305 305 305 305 305 305 306 306 307 307 307 307 307 307 307 307 306 304 304 306 308 305 304 306 305 306 306 307 308 310 310 309 313 316 311 309 314 315 315 315 316 317 316 318 318 315 315 314 313 316 317 316 316 315 316 316 314 332 354 353 351 357 359 358 361 359 356 358 355 351 349 347 346 344
306 306 306 306 306 306 305 306 307 307 306 307 306 306 306 305 305 305 305 305 305 306 306 307 307 307 307 307 307 307 305 304 307 311 308 304 306 305 306 306 305 305 306 309 311 308 312 315 310 309 312 314 315 316 316 317 316 317 318 316 315 314 313 315 315 315 316 314 315 317 314 326 345 348 350 358 359 358 360 359 358 360 357 353 349 346 345 344
306 306 306 306 306 306 305 305 306 306 306 306 306 306 306 305 305 305 305 305 305 306 306 306 306 307 306 307 306 305 304 306 310 310 306 307 308 306 307 307 305 305 305 310 311 307 310 311 308 310 311 313 316 316 317 318 316 315 317 317 317 315 314 314 315 316 315 315 315 317 318 320 330 346 354 356 359 360 357 356 357 358 357 354 350 346 345 344
306 306 306 306 306 306 305 305 305 306 306 306 306 306 306 306 305 305 305 305 305 306 306 306 306 306 306 306 305 304 306 308 306 309 308 310 310 308 307 306 307 305 306 311 310 306 307 308 308 312 312 315 316 316 319 319 315 315 315 316 317 315 315 314 315 316 315 315 316 317 319 316 330 353 355 353 358 359 355 353 354 354 353 352 349 347 346 346
307 306 306 306 306 306 306 305 305 305 305 306 306 305 305 305 305 305 305 305 306 306 306 306 305 306 306 306 305 304 307 305 305 310 308 309 311 311 307 306 307 305 308 311 308 305 307 307 308 312 315 315 316 316 318 317 314 317 317 315 315 314 314 313 314 315 314 316 317 318 317 321 343 356 350 353 358 355 354 353 352 352 351 350 349 347 347 347
307 307 307 306 306 306 306 306 305 305 305 305 305 305 305 305 305 305 305 305 305 306 306 306 305 305 305 305 305 306 309 309 307 308 307 307 310 312 309 307 306 305 310 310 305 305 308 308 308 312 316 315 317 317 317 316 314 316 317 316 316 314 313 313 313 314 314 315 315 316 319 326 345 352 351 358 357 354 355 351 351 352 351 351 349 348 348 347
308 307 307 306 306 306 306 306 305 305 305 305 305 305 305 305 305 305 305 304 305 305 305 306 305 305 305 304 307 309 310 311 306 305 306 306 309 313 309 307 307 307 311 308 304 306 307 309 309 312 315 315 316 316 316 316 314 314 315 316 315 314 314 314 314 314 314 313 313 321 330 341 350 351 355 359 355 354 354 352 352 351 351 352 351 350 348 347
308 308 307 306 306 306 306 306 305 305 305 305 305 305 305 305 305 305 305 304 304 305 305 305 305 304 304 304 306 308 307 307 304 305 305 305 309 312 310 308 308 310 310 307 305 306 305 308 310 312 314 315 314 314 315 316 316 315 314 315 314 314 315 313 314 314 314 313 318 335 346 351 353 353 356 355 354 354 352 352 352 351 353 352 351 351 349 349
306 307 308 307 307 306 306 306 305 305 305 304 305 305 305 305 305 304 304 304 304 304 305 305 304 304 304 304 306 306 305 307 305 306 306 306 308 311 312 308 309 311 308 306 306 305 306 307 309 310 311 313 312 313 314 315 316 316 314 314 314 315 313 313 315 314 316 314 319 344 355 352 348 353 358 354 353 353 352 353 352 352 353 352 352 349 346 343
305 306 307 308 307 307 306 306 305 305 305 305 304 305 305 305 305 305 304 304 304 304 305 305 304 304 303 304 306 307 305 308 307 307 307 306 307 309 311 309 309 310 308 307 306 306 307 306 308 310 310 311 311 311 313 313 313 312 312 312 313 313 311 313 314 315 317 314 322 343 348 341 342 356 358 353 352 352 353 354 353 353 352 351 350 345 341 337
304 304 306 306 307 307 306 306 306 305 305 305 304 304 304 304 304 304 304 304 303 303 304 305 304 304 303 303 304 307 306 309 308 308 306 305 306 308 309 309 309 309 309 308 307 308 308 306 307 309 310 310 310 311 312 311 310 311 311 312 314 314 313 314 313 315 316 314 322 329 326 323 337 356 355 350 352 352 353 353 352 353 351 349 345 342 341 336
302 303 304 305 306 307 307 306 306 305 305 305 304 304 304 304 304 304 304 304 303 303 304 304 304 303 303 304 304 304 305 308 307 307 307 305 304 307 309 309 309 309 309 308 307 308 307 307 308 309 310 309 309 311 310 310 309 311 312 310 313 313 315 316 313 314 315 316 318 316 317 316 329 351 354 350 351 352 354 354 352 352 350 348 343 340 338 335
302 302 303 304 305 306 307 307 306 306 305 304 304 304 304 304 303 303 303 304 303 304 304 304 304 303 303 304 303 302 303 304 304 305 306 305 304 306 308 309 309 309 309 308 307 306 306 307 307 308 308 308 310 310 309 311 311 312 311 312 314 311 316 320 315 315 314 316 317 315 317 314 329 350 353 350 351 351 353 353 352 351 350 348 345 342 341 341
302 302 302 303 304 305 306 307 307 306 305 304 304 304 304 303 303 302 302 304 303 304 304 304 304 303 303 303 303 302 303 304 304 305 306 306 304 305 308 309 309 310 311 308 306 305 306 306 306 308 308 309 309 308 310 311 314 316 310 315 316 309 318 322 315 316 315 316 315 315 315 315 336 354 351 349 351 351 352 353 352 351 351 348 346 345 344 344
301 301 301 302 303 304 306 307 307 306 305 304 303 303 303 303 303 301 301 302 303 304 304 304 303 303 305 305 302 302 304 306 306 305 306 305 304 306 307 307 307 309 311 309 307 307 307 306 308 309 308 309 309 309 312 311 317 322 314 316 318 310 315 317 314 316 315 317 314 314 317 318 338 352 349 351 351 350 352 352 352 350 349 346 345 344 344 344
301 301 301 301 302 304 305 306 307 306 305 304 303 303 303 302 301 300 300 301 303 303 303 303 303 303 306 305 303 305 305 306 305 305 307 306 305 305 305 306 307 309 310 309 309 308 309 310 311 312 309 310 311 309 312 311 315 321 314 313 317 313 313 313 314 315 312 316 315 315 317 318 337 350 349 350 347 351 353 352 353 350 347 345 343 344 344 344
301 301 301 301 301 303 304 306 307 306 305 304 303 303 303 301 300 299 301 302 303 302 302 303 302 304 308 304 303 306 305 305 305 306 307 307 308 306 305 306 307 310 311 311 311 310 311 312 312 315 311 310 311 310 312 313 313 317 314 314 316 313 312 313 315 315 312 315 315 316 314 318 340 352 349 343 338 346 352 351 351 348 346 345 344 345 344 344
300 300 301 301 301 302 303 305 306 306 304 304 303 302 301 300 300 301 302 303 304 303 302 304 303 304 306 305 304 305 305 305 306 307 308 308 308 306 306 305 306 310 313 313 314 312 312 313 312 314 313 311 310 309 311 312 312 316 317 319 318 312 311 314 315 315 313 313 315 317 314 322 344 353 348 342 337 344 351 349 348 347 345 345 344 344 343 343
300 300 300 301 301 301 302 304 306 306 304 304 303 301 301 302 304 304 304 303 304 303 303 303 303 304 304 304 304 304 304 306 307 307 308 309 307 305 306 306 306 309 313 315 314 313 313 315 313 312 313 312 310 310 310 311 312 314 314 315 314 311 312 313 314 315 313 313 316 317 317 327 345 351 349 346 340 341 346 348 349 347 346 345 345 344 343 342
300 300 300 300 300 301 302 303 305 305 304 303 302 301 301 303 305 305 303 303 303 303 303 303 302 303 304 303 304 304 304 305 307 307 307 309 307 306 307 306 306 307 311 314 314 313 313 315 314 312 313 313 311 313 312 311 311 311 311 312 311 311 312 312 312 313 311 313 316 316 316 326 343 350 349 348 341 337 340 346 350 347 346 345 344 343 342 340
300 300 300 300 300 300 301 303 305 305 303 303 302 301 300 301 303 302 302 304 303 302 303 303 302 302 303 302 303 303 303 305 307 307 307 308 307 307 308 306 306 307 309 312 313 312 312 313 313 313 313 312 312 313 313 312 312 312 312 312 312 313 312 313 316 314 311 314 317 317 314 318 335 348 348 347 343 338 340 345 348 347 346 345 344 343 341 340
300 300 300 300 299 299 301 302 304 305 303 303 302 301 301 300 301 301 302 304 304 303 303 303 303 303 303 303 304 303 303 304 306 307 307 307 307 307 307 306 307 307 308 311 313 313 314 313 313 313 313 312 312 313 312 313 313 314 314 312 313 313 311 314 319 316 313 314 316 319 315 314 329 345 347 346 343 342 343 344 344 345 345 344 343 341 340 340
300 300 300 300 299 299 300 302 304 304 303 302 302 302 301 300 301 301 303 305 305 304 304 304 304 304 304 305 305 304 303 303 304 306 306 307 307 307 307 306 306 306 306 309 312 312 313 313 313 313 312 312 314 313 312 313 314 314 314 313 311 312 311 313 316 316 317 319 317 317 314 314 329 345 346 342 342 344 344 340 340 344 345 342 341 339 339 339
300 300 300 300 299 300 300 302 304 303 302 301 302 302 302 301 301 301 303 306 306 305 304 304 304 305 306 305 305 304 303 303 303 304 305 307 307 307 306 305 306 306 305 308 311 311 312 312 312 312 312 312 312 314 313 313 313 314 315 313 311 312 312 312 313 314 317 319 318 315 312 315 327 342 345 339 341 344 341 339 342 346 345 342 342 340 338 338
300 300 300 300 300 300 301 303 303 302 302 301 302 302 301 302 301 301 302 305 307 305 304 305 305 306 306 306 305 304 304 304 304 303 304 306 307 307 307 305 306 305 306 309 310 311 311 312 312 312 313 312 312 313 312 312 313 313 314 312 310 311 311 312 311 312 315 317 319 315 312 317 323 334 342 340 343 343 337 342 347 346 346 343 342 341 339 338
300 300 300 299 300 300 302 303 302 301 301 301 302 301 300 301 302 301 302 306 308 305 305 305 304 306 307 306 305 305 307 307 305 304 304 306 307 307 307 306 306 305 306 309 310 310 311 312 313 312 312 312 312 312 311 312 313 313 313 312 311 311 311 312 310 312 317 317 320 317 314 320 322 329 340 341 345 345 340 346 349 346 347 344 342 341 339 338
299 299 299 299 299 300 301 301 300 300 301 301 301 300 301 301 301 301 304 308 309 305 306 305 304 306 307 307 306 305 307 307 306 306 305 306 307 306 307 305 305 305 307 309 309 310 311 312 312 312 312 312 311 312 312 311 313 314 313 313 314 312 312 313 311 312 317 315 318 320 315 315 320 331 342 343 347 350 346 348 349 347 347 345 344 342 340 339
299 299 299 299 299 300 301 301 301 300 301 301 300 301 301 301 302 303 306 310 308 303 306 307 305 307 307 307 306 305 306 307 307 307 305 306 307 306 307 305 305 307 307 309 312 313 311 311 312 311 311 312 311 312 311 310 312 312 312 314 314 314 314 314 312 313 315 315 317 319 315 312 320 335 346 346 348 351 350 349 348 347 346 344 344 343 342 341
298 298 298 298 299 300 301 302 302 301 301 301 301 301 301 301 304 306 307 310 307 304 305 306 306 307 307 307 306 304 306 307 307 307 305 307 307 305 306 306 305 306 308 310 313 314 311 311 313 311 311 312 312 313 310 309 311 310 311 311 310 316 319 317 321 320 315 318 320 318 316 315 321 336 345 345 347 348 348 349 347 345 345 343 343 343 342 342
298 298 298 298 299 300 301 301 301 301 301 301 301 301 302 302 305 307 308 308 308 306 304 305 306 308 308 307 306 305 305 306 307 307 306 307 306 305 305 306 305 306 308 311 312 311 311 312 312 312 312 312 312 312 310 309 309 308 312 311 310 320 320 314 320 319 314 320 324 319 316 313 319 335 343 343 344 343 344 347 346 345 345 342 342 342 342 341
297 297 298 298 298 300 301 301 301 301 301 301 300 301 304 304 305 307 307 307 310 310 306 305 306 308 308 307 306 305 305 306 306 307 306 306 305 305 305 305 306 307 306 308 311 311 311 312 311 312 314 312 311 312 310 308 309 308 311 312 313 317 315 312 317 319 319 322 320 319 315 311 320 332 339 344 343 340 341 343 343 343 343 342 341 342 341 339
298 298 298 298 298 300 300 300 300 301 300 299 299 303 306 306 306 306 305 307 311 311 309 307 306 308 308 305 305 305 305 306 306 307 307 305 305 305 305 306 307 310 312 312 312 312 311 312 311 310 313 312 310 311 311 310 309 308 309 312 314 317 315 315 319 319 321 320 317 319 314 312 328 336 339 344 343 340 342 342 341 340 340 341 341 340 339 337
298 298 299 299 299 300 299 299 299 300 300 299 300 305 306 306 306 307 306 308 310 309 310 309 307 306 306 305 304 304 305 307 305 307 307 306 306 305 306 306 304 312 321 315 311 313 313 314 313 311 312 312 310 311 311 311 310 308 310 311 315 322 320 317 320 319 318 317 318 322 319 321 338 342 339 340 340 341 342 340 339 339 338 339 339 338 337 335
298 298 299 300 300 300 299 299 299 300 300 300 303 305 305 305 306 308 309 308 308 308 309 309 307 306 306 304 304 305 306 308 306 306 307 306 307 306 306 306 304 309 316 313 311 312 311 313 315 312 313 312 310 311 309 310 311 309 311 312 312 319 322 319 322 324 326 323 320 328 333 335 341 341 338 338 339 340 340 339 340 340 339 338 337 337 335 333
299 299 300 300 301 300 299 299 300 300 300 302 304 306 305 304 305 307 308 307 307 307 308 310 306 305 306 304 304 305 306 308 307 305 306 306 307 307 306 306 306 306 311 316 317 314 311 315 317 312 313 312 310 311 309 310 314 311 310 312 310 315 321 319 318 321 327 325 320 330 342 342 341 341 340 340 342 341 340 340 341 339 338 337 336 335 333 332
299 300 300 300 300 300 299 299 300 300 301 303 305 306 305 303 304 305 306 306 306 306 308 312 309 306 306 305 305 305 304 308 308 305 308 309 308 309 307 306 307 306 309 315 317 317 316 320 321 312 311 313 310 311 310 309 314 312 309 312 312 312 319 325 323 322 325 326 327 334 344 346 344 342 342 343 344 343 341 340 340 338 337 336 334 333 331 330
299 300 301 300 299 299 299 299 300 300 302 304 305 305 304 302 303 304 304 304 305 305 309 315 316 312 306 304 306 305 304 308 307 306 308 309 310 310 306 307 308 307 308 310 313 317 317 319 322 315 311 313 311 309 311 309 310 313 312 313 314 314 318 322 322 320 321 326 333 339 341 343 344 342 344 346 345 344 341 340 340 338 336 335 333 331 330 328
299 300 302 301 299 299 300 300 301 302 303 305 305 305 303 302 303 303 303 303 304 305 309 315 316 314 311 308 306 304 305 307 307 306 307 306 310 311 307 308 308 307 309 308 310 317 318 318 323 319 311 313 312 310 312 312 309 312 313 310 313 319 321 317 317 321 323 328 334 340 339 340 342 341 343 345 343 343 342 339 339 337 334 332 330 329 328 327
300 302 302 301 300 300 300 301 303 304 305 305 304 304 302 302 302 303 302 303 303 304 308 311 311 314 317 314 309 304 304 306 306 307 307 307 309 310 307 308 309 308 308 308 309 314 313 314 323 324 314 311 314 312 312 313 311 311 312 311 311 314 316 316 317 318 324 333 335 338 340 340 341 340 340 341 340 340 339 338 336 334 331 330 328 327 326 326
301 303 302 301 301 300 301 303 305 305 306 306 304 302 301 302 303 303 302 302 303 303 305 307 308 311 314 315 315 309 303 304 306 307 307 306 308 310 309 308 308 307 307 308 309 311 313 316 324 327 317 311 314 314 312 313 313 313 314 315 315 314 315 317 316 315 324 338 338 338 342 342 339 337 338 339 338 337 336 335 333 331 330 328 326 326 325 324
302 303 301 301 302 301 302 305 305 304 305 305 303 301 301 302 302 302 302 303 304 304 304 305 307 310 311 313 318 315 308 304 304 306 308 307 309 312 311 310 309 307 308 309 308 314 323 320 318 320 319 316 315 313 312 312 313 314 314 315 317 319 318 319 322 322 322 327 331 335 341 341 336 335 338 338 336 334 332 331 331 329 327 326 325 325 324 323
302 302 301 301 302 301 303 305 304 304 304 303 302 302 301 301 302 302 303 303 304 305 306 307 309 311 312 314 317 317 314 310 305 306 310 309 308 309 309 310 309 307 309 308 308 316 322 317 315 319 321 322 320 313 311 312 311 314 315 314 315 319 322 327 336 333 323 326 331 333 338 341 338 335 337 335 333 332 330 329 328 327 326 325 324 323 323 323
300 301 302 302 301 302 304 304 304 305 304 302 303 303 302 302 303 304 304 305 305 306 306 308 310 311 313 318 320 316 316 315 308 305 309 310 309 309 308 308 308 308 309 310 311 313 315 318 321 320 317 320 319 313 310 310 312 321 324 316 313 319 323 324 327 324 320 326 331 329 337 342 337 335 335 333 331 330 329 328 327 326 325 324 323 322 322 322
300 302 303 302 302 303 304 304 304 305 304 304 305 306 305 305 304 304 304 304 305 305 306 308 309 310 312 318 321 316 314 316 312 308 311 316 316 311 306 306 309 308 310 316 315 309 315 323 322 321 324 325 321 322 324 318 314 318 321 315 312 316 318 318 320 318 317 322 326 333 342 340 335 335 334 332 331 331 329 327 325 324 324 323 322 322 321 321
302 303 303 303 304 304 304 303 303 304 305 305 307 307 308 307 306 305 305 305 305 305 306 306 307 310 314 318 323 319 315 316 317 317 319 322 325 318 308 306 308 307 314 322 316 312 321 325 322 328 334 329 327 332 331 322 315 314 315 315 316 316 318 325 325 322 324 327 331 339 341 339 337 337 335 333 332 331 329 327 325 324 323 322 321 321 320 320
302 303 302 303 304 304 304 303 303 304 304 305 307 308 308 308 308 308 307 308 307 306 307 307 309 314 316 318 323 322 318 319 321 321 320 322 327 324 315 309 307 309 319 323 317 317 321 319 322 330 328 324 328 329 325 324 326 327 326 327 326 321 319 322 322 324 330 328 330 335 335 338 340 337 335 334 331 330 328 326 325 323 322 321 320 320 319 319
303 304 303 303 304 304 304 303 303 304 304 304 305 307 308 308 308 309 309 308 308 309 311 313 315 317 316 317 321 320 320 323 322 321 320 320 323 328 325 317 312 315 320 318 317 320 319 316 320 325 324 325 326 324 326 332 332 331 333 338 339 330 321 320 324 330 330 323 328 336 335 336 338 335 333 332 330 329 327 324 323 322 321 320 319 319 319 319
303 303 303 304 304 305 305 304 304 305 304 305 306 307 307 308 308 309 309 310 312 314 316 317 317 318 317 318 319 318 319 323 323 322 322 320 321 327 329 323 320 323 320 315 317 320 319 318 322 327 328 328 328 325 326 330 330 329 329 332 338 336 329 330 332 330 329 329 334 337 334 333 336 334 332 330 328 327 324 322 323 321 320 320 319 319 319 319
303 304 304 305 305 305 305 305 305 306 307 307 307 308 308 308 310 311 311 313 315 316 317 317 317 318 318 318 320 319 318 320 322 321 321 321 322 324 326 324 323 324 319 315 317 317 316 318 325 333 331 326 329 328 325 329 334 333 329 328 335 338 336 338 335 333 339 339 332 332 333 333 333 331 330 328 326 324 323 322 322 320 320 320 319 319 319 318
303 303 304 305 306 306 305 305 305 307 309 309 308 309 310 311 312 313 313 313 314 315 316 316 317 320 321 321 321 320 318 319 320 320 320 321 321 321 323 322 320 324 324 320 319 321 321 320 323 332 329 325 329 326 323 330 334 331 332 332 334 338 338 335 331 331 339 338 330 331 334 332 330 328 327 326 324 323 323 322 321 320 319 319 319 318 318 318
302 303 304 305 306 307 306 307 307 309 310 311 310 310 311 312 312 312 312 313 314 314 314 315 317 320 322 322 320 318 318 318 319 319 318 320 320 321 323 321 319 325 330 328 327 328 327 323 322 327 326 326 333 329 325 328 326 325 330 328 326 330 331 330 328 327 330 331 331 335 334 330 328 326 326 326 324 323 323 322 321 320 319 319 319 318 318 319
Wind_Speed
13 13 12 12 12 12 12 12 12 12 12 12 13 13 14 14 14 14 14 15 15 15 16 16 16 16 17 18 20 20 23 24 24 20 13 23 26 21 16 12 8 7 6 7 9 7 3 2 3 3 5 4 2 2 2 3 2 2 3 2 3 5 5 5 6 5 3 5 7 7 6 2 4 2 5 7 8 9 9 6 6 8 8 11 17 26 30 28
13 13 13 12 12 12 12 12 12 12 12 12 13 13 14 14 15 15 15 15 15 15 16 16 16 16 17 18 19 20 23 25 21 20 27 32 25 22 21 18 17 14 10 8 8 8 3 1 3 2 3 2 1 2 3 2 3 3 3 2 4 5 5 5 5 4 4 5 8 10 4 2 5 2 4 6 7 8 11 7 10 13 12 14 18 24 27 27
14 14 13 13 13 12 12 13 13 12 12 13 13 13 14 14 15 15 15 16 15 15 15 15 16 16 17 18 18 20 22 19 11 16 29 27 24 26 22 19 20 18 15 11 8 9 7 2 3 4 3 0 1 1 2 2 3 3 3 3 6 5 6 7 7 7 6 6 6 11 7 1 5 1 2 7 9 7 10 10 13 15 13 14 13 17 23 24
14 14 14 14 13 13 13 13 13 13 13 13 13 13 14 14 14 15 16 16 15 15 15 15 16 16 17 18 18 19 16 10 4 10 15 15 19 23 22 21 19 17 16 13 8 7 7 3 2 3 3 0 2 1 2 3 3 3 4 5 5 4 7 8 7 9 7 5 4 7 7 4 4 1 4 11 11 2 6 12 17 19 16 17 14 15 20 19
16 15 15 15 14 14 14 13 14 14 13 14 14 13 14 14 14 15 16 16 16 15 15 14 15 16 17 19 19 17 8 2 4 3 4 7 11 18 23 22 20 19 15 13 9 5 6 3 3 2 2 1 1 2 3 5 3 2 3 5 6 5 6 7 6 8 5 2 3 4 4 3 2 3 7 9 9 5 7 10 16 22 21 20 18 16 16 15
17 17 16 16 15 15 14 14 14 14 14 14 14 14 14 14 14 15 15 16 15 15 14 14 15 16 17 20 17 10 2 1 5 4 7 13 10 14 22 23 23 22 16 13 10 6 4 3 3 1 2 1 2 3 4 4 3 3 4 3 6 7 7 7 6 7 2 1 3 3 2 1 3 5 5 1 0 3 7 7 10 16 20 20 19 17 15 14
17 17 16 17 16 15 15 14 15 15 15 14 14 14 14 14 14 15 15 15 15 14 14 13 15 15 18 19 10 3 2 7 11 4 9 17 15 8 18 24 26 23 18 15 9 6 4 5 4 3 4 1 3 5 5 3 3 4 4 4 7 8 8 9 9 8 4 4 7 2 2 1 6 6 2 4 3 6 10 11 12 13 16 17 16 15 14 14
18 18 17 17 16 16 15 15 15 15 15 15 15 14 14 14 14 14 14 14 14 13 13 13 14 14 17 15 5 1 1 13 21 15 13 15 16 4 12 19 23 22 20 18 11 7 5 6 6 3 3 3 3 4 4 2 3 4 5 6 6 7 8 10 10 9 9 7 3 2 2 1 6 6 3 4 4 8 12 14 15 14 15 14 13 14 13 12
20 20 18 18 17 17 16 15 15 15 16 16 15 14 14 14 14 14 13 14 13 12 13 13 13 14 15 11 2 2 6 14 20 18 17 13 12 4 9 15 20 21 18 16 12 10 6 5 6 4 4 4 4 3 3 3 3 6 7 7 6 7 9 8 9 10 9 3 5 6 4 4 6 7 6 3 6 9 13 15 15 15 15 12 11 12 11 10
20 20 20 20 18 18 18 16 15 16 16 17 16 15 15 14 14 14 13 13 13 12 12 11 12 13 13 7 1 4 7 7 9 9 8 7 7 4 8 13 20 21 15 11 12 12 8 6 6 4 3 3 4 3 3 5 3 4 5 7 8 10 10 5 7 10 7 1 7 8 7 6 2 4 4 4 9 12 15 16 14 14 14 12 11 8 7 6
20 20 20 20 20 19 19 17 16 16 17 17 16 15 15 14 14 14 13 13 12 12 11 10 11 12 11 6 1 6 4 3 7 4 3 3 4 6 6 8 16 22 16 9 13 18 13 8 4 2 2 2 2 2 3 4 3 3 2 5 7 8 8 5 7 9 4 1 7 11 7 2 3 3 7 8 11 12 16 18 15 13 11 11 10 8 8 5
21 20 20 20 21 21 19 18 17 16 17 17 17 16 16 15 14 14 14 13 12 11 10 11 10 10 9 5 8 16 9 6 5 0 5 7 6 7 8 8 10 18 19 10 11 21 18 11 4 2 3 1 1 2 3 3 3 5 3 4 7 5 5 7 7 7 4 1 7 10 4 2 3 4 10 10 11 12 14 16 14 12 10 9 9 7 6 7
21 21 20 20 20 21 21 18 17 16 17 17 17 17 16 16 15 14 13 13 12 11 10 10 9 9 6 3 14 22 17 11 11 13 12 11 10 7 9 11 9 13 19 16 15 18 18 15 9 4 2 1 2 2 2 4 3 4 2 1 4 6 5 7 4 5 6 3 7 8 2 4 4 5 13 11 13 14 12 13 11 9 8 8 8 6 6 7
21 21 21 20 19 20 22 20 18 17 17 17 17 17 16 16 15 14 13 12 11 10 9 8 8 8 4 8 16 18 19 19 21 24 18 14 13 9 11 13 12 12 15 21 19 13 15 18 10 3 2 1 4 4 5 5 3 2 2 0 1 0 5 8 3 5 6 3 4 8 3 4 4 8 13 11 14 15 14 13 10 9 8 8 8 8 7 8
21 21 22 21 20 21 22 21 19 17 17 18 17 17 17 16 15 14 13 11 10 10 9 8 8 6 3 11 17 13 12 12 19 27 24 20 15 9 12 13 11 12 13 19 17 8 12 17 8 2 3 3 2 2 4 3 3 2 1 3 2 3 5 8 4 7 8 3 5 6 3 3 5 11 12 11 13 14 15 14 11 9 10 9 8 9 7 5
22 22 21 21 20 21 22 21 20 16 16 17 17 18 18 17 16 15 14 11 10 9 7 6 6 6 2 7 7 6 6 9 18 25 23 24 18 12 12 9 7 8 10 17 17 9 9 12 4 3 3 2 3 3 3 3 4 3 1 3 2 3 3 5 4 5 7 2 3 2 4 2 5 10 11 12 13 14 15 12 11 10 9 10 7 8 7 5
21 22 21 20 20 20 21 20 20 17 16 17 17 18 18 19 19 17 15 10 8 7 5 4 3 5 6 8 5 5 6 11 16 15 14 16 17 16 10 3 4 4 7 12 12 8 5 6 2 2 2 2 3 4 2 2 3 3 1 2 3 3 3 1 4 5 1 3 1 0 3 3 6 11 12 11 9 11 14 12 11 10 8 8 7 7 8 7
21 22 21 20 19 19 20 19 20 17 14 15 16 18 20 22 20 16 12 7 2 1 4 5 2 3 6 10 6 4 6 7 9 9 9 8 9 14 10 3 2 1 4 4 4 5 3 2 2 2 1 3 4 5 4 5 5 3 3 2 3 2 2 2 4 3 2 4 3 3 1 1 9 13 12 12 9 9 13 13 11 10 9 8 7 8 9 8
20 21 21 21 19 19 19 18 19 16 13 14 16 18 19 16 10 8 8 5 4 2 2 5 6 3 3 6 4 3 11 10 8 7 7 7 6 9 9 5 1 3 4 2 3 5 3 1 3 4 4 5 6 6 7 6 7 7 5 4 3 2 3 4 5 5 2 4 3 6 4 4 11 12 12 14 12 11 11 11 10 9 8 8 7 7 8 8
21 20 20 21 19 18 18 18 18 16 13 14 13 12 10 4 2 2 4 5 7 6 3 3 9 6 5 1 4 11 12 7 4 4 8 9 10 9 5 3 2 2 4 5 4 3 4 4 4 6 6 6 7 8 8 7 6 6 4 3 3 3 4 4 4 5 2 2 4 5 7 8 12 13 13 13 10 7 7 7 8 9 9 8 8 8 8 7
21 19 19 20 19 18 18 18 15 15 12 12 8 5 1 1 1 1 1 5 11 13 11 7 11 12 12 8 7 14 10 5 6 5 9 9 11 10 3 4 4 3 3 5 4 1 4 7 7 7 7 7 7 8 8 7 5 4 4 2 3 3 4 5 4 5 1 2 3 4 8 8 12 13 12 11 11 8 8 9 11 11 10 8 9 9 8 7
20 19 19 19 18 18 17 16 14 13 10 9 6 4 5 7 5 1 2 3 8 15 17 14 13 15 19 20 15 9 5 5 8 8 7 7 8 7 4 4 6 4 3 4 4 2 4 6 7 7 6 7 6 7 7 7 6 3 3 2 2 3 4 5 4 5 1 3 3 3 7 6 11 12 12 14 14 14 15 13 12 13 12 10 10 10 9 9
19 18 18 18 17 17 16 16 13 13 11 9 7 8 8 8 7 5 3 2 5 9 12 13 13 13 15 16 13 6 3 5 5 7 5 8 6 6 6 6 6 5 4 5 5 5 4 5 6 7 6 7 4 5 7 5 5 4 4 3 3 4 1 2 4 6 2 2 2 4 5 3 7 8 11 11 9 11 12 8 5 6 7 8 9 7 8 10
19 17 17 17 16 15 16 15 11 13 12 11 13 17 14 8 5 4 2 1 5 5 10 15 12 10 13 10 7 10 6 5 5 5 5 8 5 5 6 6 7 6 5 6 7 6 4 6 6 8 6 8 6 5 7 5 4 3 5 6 4 4 3 3 3 6 5 3 1 6 5 0 5 8 9 3 3 5 9 8 5 4 5 7 7 6 6 6
17 16 16 15 14 15 15 12 9 11 9 10 16 20 17 14 13 7 2 1 4 3 7 12 8 8 14 10 9 11 5 5 7 7 4 6 7 5 3 4 5 6 7 7 7 5 6 5 6 9 6 7 7 6 7 7 4 3 5 9 7 5 4 3 4 5 6 5 2 5 4 3 4 9 11 5 4 5 5 7 10 9 10 10 7 6 7 5
16 15 14 14 13 12 10 6 6 9 6 10 12 10 10 10 13 11 2 2 4 2 4 7 6 8 12 10 9 8 2 4 9 12 9 6 7 6 4 2 2 5 7 5 4 3 5 5 6 9 7 7 7 6 6 7 6 3 5 8 8 7 4 3 3 2 1 4 4 3 5 2 4 7 10 10 11 8 5 7 10 11 12 10 7 7 8 8
14 13 12 13 13 10 6 2 6 7 5 5 3 6 12 10 7 11 3 3 4 3 5 4 5 8 10 12 13 8 3 3 4 9 11 10 7 6 6 4 3 4 4 4 3 2 6 8 6 8 8 7 7 5 5 8 7 4 4 7 9 7 5 5 4 3 3 4 5 1 5 4 2 6 7 10 13 11 9 9 10 12 12 9 8 8 8 9
12 12 12 12 12 11 9 3 6 6 7 6 2 12 17 10 7 8 2 0 2 2 4 3 6 7 7 12 16 9 4 4 5 6 10 13 9 5 6 7 6 5 5 6 5 3 6 10 8 8 7 6 6 5 7 9 5 5 4 8 8 8 7 6 6 5 2 2 6 4 3 4 3 4 2 8 13 13 13 13 12 14 14 11 10 10 9 9
11 11 11 12 12 12 12 9 8 9 13 9 11 18 18 4 9 4 1 2 1 1 3 2 6 5 5 9 12 9 4 1 4 5 8 10 10 3 4 6 7 7 6 6 5 4 4 9 9 8 6 6 6 5 8 10 5 5 5 4 2 4 3 3 4 3 1 1 6 7 4 4 3 2 4 8 12 14 12 12 13 12 12 10 10 11 9 8
11 12 12 11 10 10 9 11 17 19 17 13 15 18 11 2 6 1 1 2 0 1 2 2 4 5 10 10 8 9 6 2 1 5 7 4 6 5 2 5 6 5 5 4 6 5 3 4 7 7 5 5 6 5 7 10 7 3 4 1 1 2 3 2 1 2 2 2 8 8 7 6 2 3 6 7 10 14 11 9 9 8 9 9 9 10 9 7
11 12 11 10 9 8 5 7 13 16 14 12 16 12 2 3 1 1 4 2 2 0 1 2 4 7 13 11 7 8 6 3 2 6 8 4 6 6 4 5 4 4 5 4 6 7 4 3 4 4 5 5 6 5 5 7 6 3 3 3 1 3 4 3 3 2 2 5 8 6 6 7 5 4 7 5 5 13 14 13 14 13 11 10 8 9 8 7
11 10 11 11 10 8 7 5 4 5 6 10 14 5 4 2 1 2 3 3 2 1 1 3 4 8 11 9 8 9 6 2 2 5 8 6 7 8 6 7 4 5 6 4 4 5 6 4 2 2 6 8 6 4 4 3 4 5 3 4 3 1 1 2 3 1 4 6 6 3 3 5 4 4 6 7 7 12 14 12 16 17 14 12 9 9 9 8
9 9 9 10 9 8 9 9 8 7 9 14 10 1 4 2 2 3 3 3 3 4 4 1 4 9 11 7 7 9 5 3 2 3 6 8 8 8 7 7 6 6 5 3 4 4 4 4 3 4 5 7 9 6 5 4 5 7 6 5 5 3 3 4 3 1 3 4 3 2 2 3 2 2 2 5 6 9 8 5 9 11 12 12 9 9 8 8
5 7 7 7 7 7 8 10 12 12 11 13 5 3 4 2 3 2 1 2 5 6 6 4 2 8 9 6 6 8 5 3 4 4 4 7 8 7 7 7 6 6 4 5 4 5 6 5 6 8 4 6 11 9 8 5 5 6 5 6 5 4 5 4 4 3 3 4 2 4 1 2 2 1 2 3 3 5 8 7 9 10 10 9 8 8 9 9
4 5 6 6 6 8 10 9 10 10 8 7 1 3 3 3 3 2 1 4 5 5 10 9 2 8 6 3 3 7 5 2 4 4 4 7 7 6 6 4 5 5 5 6 4 3 8 7 6 7 6 8 10 9 7 6 4 4 4 6 4 5 5 1 2 6 4 2 1 2 0 2 2 1 2 3 7 10 11 10 12 12 10 9 7 8 8 8
2 2 2 3 5 6 8 8 8 8 6 3 1 2 3 2 1 3 4 6 6 7 12 7 4 6 3 2 3 6 4 2 3 3 2 5 5 5 7 4 5 7 5 5 3 3 6 5 5 4 7 8 10 9 9 7 5 3 4 5 5 5 6 3 1 1 3 3 1 1 1 1 1 2 3 8 11 11 12 13 13 10 10 10 7 7 8 7
3 2 0 2 4 5 6 7 7 6 4 1 0 1 2 1 4 4 6 8 8 9 8 2 3 3 3 2 3 7 5 2 1 2 1 3 4 5 7 4 4 7 6 4 2 2 5 3 5 5 8 10 8 8 9 9 8 5 5 6 3 3 3 3 2 1 4 2 2 1 2 2 2 1 2 10 12 11 13 13 12 9 9 9 7 7 8 7
3 1 1 4 2 6 7 5 4 4 2 1 1 1 2 2 5 6 8 10 10 9 5 1 0 1 4 4 3 6 6 2 2 2 2 3 3 5 8 5 4 8 7 4 2 2 3 1 6 5 9 8 5 5 6 6 5 4 6 7 5 4 2 1 3 2 2 2 2 1 2 2 2 2 5 11 12 12 13 13 11 9 9 9 8 9 10 9
1 1 2 6 1 7 6 2 2 2 1 1 1 1 2 3 4 6 9 10 9 8 5 2 2 2 2 4 4 5 5 4 4 2 2 3 3 5 9 6 4 8 8 6 4 2 2 2 4 4 7 6 4 4 5 6 1 3 6 6 3 4 4 3 3 3 4 3 1 2 2 3 2 4 8 13 12 11 13 12 10 9 10 9 8 9 10 9
1 1 2 6 2 6 5 3 0 1 1 1 1 1 4 5 4 5 9 9 7 5 3 3 4 3 1 1 2 4 5 5 5 2 1 4 4 4 7 7 6 8 8 7 5 1 1 2 2 4 1 4 4 4 7 7 4 4 5 5 3 2 2 2 1 2 5 4 3 3 2 4 3 3 8 13 12 12 14 14 11 9 10 10 9 9 9 8
1 2 2 5 4 6 4 3 1 1 1 1 1 2 4 6 4 6 10 7 5 5 6 7 5 3 2 2 0 3 5 4 5 3 1 4 4 2 5 7 8 8 7 6 5 3 1 2 2 2 0 4 5 4 7 10 8 7 6 5 5 4 4 3 2 1 3 4 4 4 3 5 4 2 5 10 11 11 13 13 11 10 12 11 10 10 10 9
0 2 1 5 3 6 4 3 1 0 2 0 2 3 5 5 4 7 8 5 4 6 6 6 6 5 3 3 3 2 4 4 5 4 2 4 5 4 6 7 8 9 8 5 4 3 3 3 2 2 3 5 6 3 7 11 9 7 5 4 4 5 5 6 5 3 2 3 2 3 1 5 4 2 3 6 8 8 10 11 10 10 11 12 11 10 10 10
2 2 1 5 5 1 3 2 2 2 1 2 4 5 4 4 4 6 6 4 3 5 5 3 4 4 3 3 2 1 2 4 5 5 4 4 6 7 7 8 9 9 7 5 4 3 2 2 1 2 3 3 5 4 2 5 6 4 2 3 5 4 4 6 5 4 4 3 2 3 0 4 3 1 2 6 8 8 9 11 12 10 9 11 12 10 10 10
2 2 1 4 7 5 3 1 1 1 2 3 4 5 5 5 5 6 7 5 4 4 4 4 3 3 1 1 1 2 1 2 5 7 5 4 6 7 8 9 9 8 6 5 5 4 3 2 2 1 1 3 3 1 2 2 3 3 2 3 5 5 6 4 3 3 2 3 5 5 3 5 2 3 5 8 10 9 8 9 11 11 9 10 11 10 9 9
1 1 1 4 6 5 2 1 0 1 2 4 5 6 5 4 5 8 10 9 9 7 5 5 5 4 2 2 2 2 1 2 4 6 5 2 3 4 8 11 10 8 6 7 7 6 4 3 3 3 3 2 4 5 3 4 3 1 3 5 5 7 9 5 3 4 1 3 4 5 4 3 3 7 9 10 11 10 9 9 10 11 10 9 9 9 9 9
0 1 1 2 4 3 0 0 1 2 2 3 4 4 3 3 4 8 11 11 11 10 7 6 6 4 3 4 4 3 2 1 1 3 3 2 2 2 6 12 12 9 9 11 10 7 3 2 4 5 6 6 6 7 5 4 4 1 3 5 4 6 9 6 5 3 4 4 3 3 5 6 7 9 10 11 12 11 10 10 10 11 11 10 9 8 8 8
1 1 1 0 1 2 2 2 3 4 3 3 3 3 3 4 5 5 8 9 9 8 7 4 3 1 4 4 2 3 4 5 4 3 1 1 3 3 2 7 11 12 13 12 9 6 4 3 5 5 4 4 4 6 4 5 5 3 3 3 2 5 8 8 5 5 6 6 2 5 7 10 10 10 11 13 14 13 12 12 11 11 11 10 9 8 8 7
1 1 0 1 0 1 2 3 4 5 5 3 2 3 4 6 6 5 4 7 6 3 2 1 4 4 4 2 1 1 4 4 4 3 3 2 3 3 3 1 4 10 12 10 7 5 5 4 4 3 2 4 5 1 5 9 5 3 5 3 2 3 7 9 6 6 8 7 5 7 11 12 10 13 15 15 14 14 13 11 10 11 11 10 10 10 9 9
1 0 1 1 1 2 3 3 4 5 6 5 3 3 4 6 8 6 4 4 3 3 3 3 3 4 4 3 3 1 2 2 2 3 3 2 3 2 3 3 2 3 7 8 5 3 4 3 3 5 4 6 7 5 6 10 6 5 5 3 4 3 4 5 4 5 7 5 5 10 11 6 3 8 12 10 10 10 11 11 10 11 12 11 11 11 10 10
1 1 1 1 2 3 3 4 4 4 5 4 4 4 4 5 7 5 4 3 4 5 5 4 2 1 4 5 4 1 3 1 1 3 2 2 2 3 3 1 2 2 3 7 4 1 2 3 2 6 4 4 6 6 6 9 8 7 6 5 5 5 5 5 3 4 6 4 5 11 9 1 2 4 8 9 10 11 12 13 12 12 13 13 12 11 11 10
3 3 2 1 2 2 2 3 3 2 1 2 3 3 3 5 6 5 3 3 2 2 3 2 1 1 4 4 3 2 4 3 4 5 4 2 0 3 2 2 2 1 3 5 3 2 4 1 1 6 4 2 3 3 4 7 10 8 6 6 4 4 3 2 0 2 4 8 10 10 6 4 4 8 9 9 11 13 14 14 13 11 12 14 13 12 11 10
6 4 2 2 2 2 2 2 1 2 1 2 3 3 3 6 6 5 2 2 2 2 2 1 2 3 3 3 1 3 5 5 6 6 4 3 1 6 2 4 2 3 4 3 2 2 5 5 2 4 4 3 4 2 1 4 7 3 2 1 0 1 2 2 1 1 5 11 11 6 5 6 9 12 12 11 13 14 14 13 12 11 11 11 12 12 11 9
Wind_Direction
304 305 304 305 307 309 309 309 310 309 310 309 311 314 315 318 320 321 321 319 320 319 320 320 319 321 321 323 325 324 323 319 311 310 274 247 248 241 245 248 234 228 234 255 246 242 293 296 240 184 152 152 159 181 180 170 137 88 100 160 228 229 222 201 203 205 224 292 312 331 4 301 286 79 102 69 79 108 97 67 78 66 68 104 116 129 136 139
297 299 300 301 302 303 303 305 306 305 305 306 309 311 313 316 317 320 320 320 319 317 319 321 321 320 320 323 324 324 324 317 311 293 260 252 255 250 245 239 238 244 245 255 236 203 165 298 230 144 118 149 220 184 179 187 158 148 132 178 227 221 226 220 228 258 278 295 317 316 325 205 240 157 123 112 120 121 105 98 102 96 94 103 117 129 134 140
292 293 295 297 299 300 300 301 302 303 303 305 307 308 312 313 315 318 319 320 319 318 318 318 321 321 321 322 322 325 321 317 311 273 266 264 256 251 243 231 231 237 242 246 240 207 182 181 177 126 85 225 258 166 172 227 184 173 161 210 242 222 248 256 252 264 265 284 314 304 322 59 224 239 71 128 128 129 128 134 128 126 131 129 131 132 137 144
287 289 291 293 296 296 297 297 298 300 300 302 303 306 310 310 313 315 317 319 318 319 318 318 321 321 321 321 321 322 318 316 282 261 277 274 253 245 235 228 222 225 232 229 234 219 190 168 119 124 102 197 299 49 168 241 202 183 182 202 237 218 251 262 251 257 259 271 287 295 340 11 249 182 114 131 118 122 175 164 151 146 148 142 144 143 144 148
285 285 287 290 291 294 294 294 294 295 296 298 300 303 305 310 313 313 317 318 316 318 318 320 320 321 323 320 320 316 315 312 274 282 335 311 267 238 225 220 216 219 221 216 217 191 178 152 68 76 92 156 330 59 215 239 178 200 219 192 224 232 253 266 246 251 263 295 293 316 351 332 284 133 151 144 139 185 187 178 161 150 151 149 149 150 149 150
282 281 283 286 287 289 290 290 291 292 294 295 298 300 302 306 311 313 316 317 316 317 318 320 320 324 322 319 319 302 224 232 300 14 2 346 323 240 217 211 209 215 213 207 202 169 160 122 96 120 108 129 181 189 240 248 161 217 266 211 229 238 245 269 262 257 284 47 276 287 314 337 95 140 169 107 146 154 126 142 149 145 146 144 146 148 151 153
277 277 277 279 282 285 286 288 289 290 291 293 295 297 300 304 309 312 315 318 316 316 320 322 321 324 323 323 319 244 166 270 265 279 325 337 340 254 209 206 203 208 203 190 181 162 144 130 159 173 129 155 194 208 245 251 201 210 262 264 250 245 240 257 263 269 270 239 252 269 350 45 134 155 148 17 22 102 106 118 127 135 136 135 142 146 151 156
274 271 271 274 277 279 281 283 286 288 289 291 292 293 297 301 305 309 314 318 315 315 319 321 324 327 326 328 325 240 249 251 251 264 296 324 345 334 192 197 195 197 191 185 183 159 140 151 180 165 149 223 191 203 232 225 253 224 238 260 258 255 247 257 263 267 266 250 234 95 61 104 134 121 70 38 73 109 116 118 121 131 135 136 143 145 152 160
280 272 268 268 271 274 275 278 282 285 287 289 290 291 294 298 303 307 312 314 314 313 313 320 324 325 327 326 314 280 251 246 258 273 284 297 333 359 171 181 184 186 183 192 185 156 164 182 196 185 171 216 192 216 213 166 248 217 217 248 259 267 259 267 274 264 265 243 106 91 109 133 116 86 59 69 108 116 119 118 123 134 140 140 143 149 156 152
293 282 270 264 264 269 270 272 277 280 286 287 288 289 291 296 299 303 306 310 314 310 310 319 321 325 331 333 181 245 254 246 246 257 279 280 298 287 178 179 185 184 183 192 177 168 183 176 188 194 178 222 203 223 192 166 232 213 213 253 254 261 265 264 266 264 276 238 133 130 148 160 139 68 94 131 128 127 126 127 132 139 145 143 138 133 110 74
298 293 283 270 261 263 266 268 272 277 282 285 287 288 290 294 295 300 303 306 311 305 308 313 320 327 322 328 211 229 236 178 170 156 36 2 286 258 226 200 193 192 191 184 188 197 193 175 170 140 185 236 230 258 222 198 288 294 285 301 272 264 274 254 247 259 284 287 150 138 142 152 356 73 141 144 136 137 135 137 143 145 144 133 119 98 79 72
298 299 296 286 269 260 260 263 268 273 279 282 286 287 288 291 291 297 297 300 305 300 305 306 317 324 310 307 241 229 216 176 173 202 331 327 311 261 245 237 219 210 205 194 209 213 200 184 173 164 221 252 316 262 236 253 311 307 332 327 295 317 304 246 234 246 243 223 141 124 88 359 344 126 143 137 136 140 135 139 146 146 139 119 106 107 123 156
299 298 297 295 282 265 258 258 262 269 276 281 285 287 289 290 290 293 295 297 297 294 297 300 310 312 307 284 245 237 236 242 268 286 285 299 303 271 243 237 247 240 223 218 228 225 203 185 176 202 250 61 265 260 309 320 336 311 332 162 296 349 319 258 227 228 236 219 147 135 98 287 288 148 145 140 139 142 140 144 142 138 134 119 117 137 158 169
299 296 292 294 290 275 262 254 257 264 272 279 283 288 289 290 291 289 292 292 290 291 290 293 299 297 272 254 263 261 261 267 278 275 264 275 286 271 247 234 245 254 238 232 237 239 205 188 178 197 279 205 236 301 339 345 11 329 314 293 317 330 274 283 259 181 214 269 116 126 153 249 239 157 151 151 148 146 147 150 142 135 132 126 135 149 161 172
299 296 294 293 295 289 272 255 253 257 266 277 281 286 289 291 292 288 289 288 285 286 282 284 274 269 280 268 275 282 270 268 265 254 246 256 267 258 241 229 241 253 245 236 237 244 187 178 169 164 257 246 191 340 340 345 356 16 352 310 332 182 256 300 280 173 183 270 50 105 154 220 181 161 160 156 154 149 149 152 145 138 135 135 142 145 153 161
299 297 296 295 295 294 283 262 252 254 263 274 278 283 287 287 288 285 285 284 283 283 277 277 243 217 259 276 288 298 249 230 243 243 242 250 246 234 236 234 259 258 239 235 236 238 175 161 158 165 199 246 153 117 24 354 331 360 103 247 268 201 250 317 289 223 186 182 14 80 145 176 172 164 166 160 159 154 149 150 141 139 142 143 144 145 150 153
298 297 295 295 293 293 290 270 252 250 258 269 277 281 284 287 288 288 286 277 273 268 245 248 207 189 246 275 303 297 246 226 238 247 248 251 240 232 237 256 285 246 212 231 234 231 187 166 177 161 159 181 159 127 91 264 267 324 346 223 249 205 198 287 273 271 206 139 273 45 133 174 170 163 166 162 166 161 149 146 144 145 147 145 143 148 156 162
295 297 294 294 292 291 294 278 254 246 254 267 274 277 283 288 288 284 274 251 228 246 240 252 220 164 256 272 263 260 303 283 264 267 251 244 232 224 216 208 286 88 157 221 223 194 197 209 149 143 192 167 166 143 173 215 190 198 205 191 261 237 205 251 246 241 142 123 154 158 126 148 159 161 162 162 180 190 162 149 150 151 149 149 149 154 163 164
293 295 295 295 293 291 296 286 260 244 249 263 271 283 292 291 284 268 242 203 141 130 211 217 193 168 289 264 216 294 318 305 284 271 228 208 198 199 196 203 254 93 144 177 215 192 172 115 127 179 210 184 183 170 184 202 169 175 182 156 183 216 247 243 252 263 153 120 158 167 156 150 162 165 164 165 176 189 172 148 145 150 149 152 153 157 162 157
290 292 294 294 293 292 294 289 264 241 243 259 278 304 310 294 257 238 204 194 207 226 264 198 199 239 306 278 51 2 329 302 292 251 199 188 167 150 160 186 136 132 167 160 197 207 148 167 204 200 198 187 186 182 187 188 164 159 150 163 193 196 262 256 258 294 65 117 231 178 144 157 169 170 171 165 152 168 180 156 151 155 158 162 159 159 155 146
287 289 293 291 292 291 290 292 266 236 240 255 277 320 317 207 182 26 203 219 228 236 260 254 219 245 267 269 348 9 351 311 316 272 217 196 156 143 175 170 140 189 204 159 165 155 152 194 215 200 187 181 183 189 189 180 168 165 155 197 262 210 246 257 250 292 52 141 258 153 129 163 178 175 173 153 138 165 194 186 172 162 162 165 161 158 147 133
283 286 290 288 291 289 290 296 268 234 236 244 249 241 241 243 224 299 324 260 241 227 240 253 242 251 259 265 285 329 339 287 298 288 230 191 164 164 179 146 150 195 196 155 150 146 191 219 214 195 176 161 179 194 185 180 175 167 145 156 275 242 263 282 281 320 72 152 268 168 137 182 191 177 171 162 163 179 186 184 174 162 165 169 166 159 147 143
280 283 287 286 290 288 289 294 265 226 222 226 227 224 244 257 242 273 287 273 274 223 217 237 239 247 253 261 262 243 239 239 264 286 210 165 166 173 161 146 157 177 174 167 169 160 194 242 209 180 155 148 183 203 175 182 190 167 141 155 243 238 248 286 295 339 358 185 227 150 118 182 194 176 177 173 171 178 170 155 141 154 164 161 155 148 150 155
277 277 283 285 287 285 287 292 258 219 220 230 243 247 253 254 233 287 322 234 280 239 206 214 217 235 242 241 206 182 205 218 213 270 215 160 155 158 160 153 149 174 191 170 169 171 218 251 185 156 157 164 187 205 168 170 214 207 175 189 221 210 192 226 285 336 339 331 120 109 76 144 180 175 184 149 63 167 147 124 147 162 126 129 136 138 154 153
273 271 280 282 284 287 289 289 243 210 217 232 252 266 273 263 244 255 338 298 272 267 213 206 202 233 228 205 167 169 196 234 218 241 239 167 160 151 168 168 150 184 187 158 160 181 234 249 156 153 174 175 186 207 181 169 195 243 222 209 196 168 192 267 330 358 4 332 293 119 104 272 224 184 179 140 116 170 153 151 174 160 135 145 155 156 156 142
266 266 277 277 281 287 282 279 216 199 221 240 254 293 325 298 251 229 224 357 274 248 166 174 181 206 197 167 155 159 159 247 223 218 226 213 184 160 171 176 130 180 172 150 162 182 216 211 155 168 178 176 195 218 201 167 159 237 242 202 171 149 179 260 304 10 52 271 277 150 156 248 281 207 183 157 150 160 176 178 170 150 145 157 163 160 159 155
262 264 273 273 275 274 261 237 155 170 203 221 248 344 344 327 231 199 178 360 278 201 144 163 177 168 169 165 158 150 183 228 195 196 211 221 203 155 171 180 123 168 159 139 197 212 184 184 177 180 174 180 203 216 196 156 143 226 221 153 151 161 195 230 227 209 217 262 305 288 152 127 220 225 196 160 151 151 173 181 163 152 152 157 165 162 159 161
264 265 269 270 271 268 265 243 149 176 209 202 306 329 333 331 195 183 118 356 250 153 127 190 195 164 153 160 158 167 227 198 154 180 193 200 199 148 175 193 149 164 176 159 205 249 178 187 191 177 178 196 200 183 169 151 156 221 169 130 151 174 194 212 214 225 237 300 298 287 136 129 243 255 170 158 159 158 169 174 164 161 162 163 165 159 154 160
267 267 266 267 271 270 268 251 217 227 236 252 311 320 328 331 176 179 13 191 199 144 114 151 195 176 131 143 164 193 246 201 174 170 158 185 207 199 187 185 148 166 197 171 185 236 199 187 182 171 188 201 189 174 157 157 192 210 148 111 112 142 174 197 196 213 120 128 256 255 168 156 260 255 163 169 172 169 171 172 166 163 164 160 155 152 150 152
269 267 263 263 270 267 259 238 235 246 252 275 315 322 326 165 165 153 223 207 333 182 104 126 193 156 142 147 173 202 217 289 259 139 129 154 199 213 176 150 140 162 195 167 174 227 262 171 171 177 193 184 175 179 164 173 192 163 120 121 331 17 24 28 125 120 107 238 253 238 191 172 226 228 188 185 182 175 167 163 161 160 160 156 150 149 147 145
269 267 261 258 260 251 229 223 245 256 255 281 316 322 343 133 178 184 190 252 327 6 75 160 171 140 152 158 168 194 204 286 322 147 155 144 161 188 165 152 157 155 183 193 189 228 264 195 180 167 163 158 161 183 192 189 183 138 114 135 196 314 354 3 352 69 157 250 261 238 183 170 198 222 200 202 196 179 172 166 167 170 167 158 149 146 147 143
268 264 258 254 252 242 225 214 243 253 249 303 326 317 139 90 313 210 243 307 355 332 295 178 157 147 164 171 170 180 180 208 271 162 159 149 163 185 177 175 170 152 190 201 164 209 235 232 234 155 172 173 156 169 214 212 164 156 161 132 140 257 297 245 263 203 208 243 263 245 159 171 219 242 205 193 191 186 185 178 173 172 161 152 149 146 145 137
267 261 255 251 251 248 244 246 249 259 300 326 332 193 119 77 191 213 274 313 21 336 315 155 158 159 164 177 175 171 169 179 206 179 157 149 163 185 191 191 166 139 175 168 129 181 227 281 262 188 196 182 162 166 198 211 173 169 176 161 163 164 162 214 231 240 250 240 281 295 205 214 259 296 221 206 204 185 169 149 159 157 143 142 145 139 137 132
259 251 248 249 251 243 245 260 261 264 304 329 326 148 108 133 229 245 241 305 338 330 322 328 190 161 164 188 176 156 161 214 199 170 152 148 162 187 196 198 175 129 114 147 158 176 191 250 232 195 203 177 176 190 183 159 154 172 158 137 160 172 161 204 208 184 236 235 315 340 234 194 201 298 291 243 202 131 111 102 122 129 128 134 132 129 132 128
234 234 243 251 247 234 230 242 256 262 294 322 324 145 150 188 261 331 36 333 333 332 322 318 155 147 169 208 179 157 155 214 201 161 148 162 168 184 184 188 188 155 120 157 192 180 187 232 243 205 204 174 178 194 167 134 151 183 132 129 184 195 153 111 186 174 184 199 328 351 275 209 179 351 352 142 124 106 106 112 122 129 130 131 128 129 127 121
203 203 232 243 234 231 222 221 247 272 295 315 92 150 203 217 337 352 358 345 331 324 322 320 123 132 174 175 175 186 162 131 179 157 139 165 160 178 183 178 180 172 148 156 189 179 180 242 276 198 206 198 182 183 173 164 176 170 145 170 197 167 132 105 211 153 90 136 257 335 234 252 153 33 53 124 122 113 119 125 130 133 130 130 129 126 121 117
97 94 101 273 245 218 202 213 250 278 286 297 100 165 241 302 25 10 345 340 324 315 319 323 118 124 169 159 181 189 163 84 165 158 161 177 174 184 187 188 174 180 178 151 179 202 163 244 275 178 199 221 188 174 190 179 153 144 182 193 161 120 118 109 153 9 56 142 285 336 168 186 171 229 125 133 134 134 137 138 138 135 130 130 124 117 116 112
86 117 28 344 261 184 181 208 251 263 249 297 350 268 256 314 21 11 345 338 328 319 324 330 347 114 147 166 205 183 158 158 195 164 169 199 225 194 179 185 181 185 187 140 140 238 148 234 272 191 188 212 165 146 209 205 159 143 177 177 142 160 211 102 157 179 114 160 290 4 179 206 198 205 162 151 152 148 144 143 143 140 136 131 121 120 117 111
50 185 27 9 39 159 147 164 258 275 261 62 312 281 320 334 3 3 342 336 331 324 326 340 347 4 145 164 191 178 154 168 186 164 156 176 232 216 182 174 180 185 182 153 160 235 122 125 273 234 187 177 138 140 204 217 193 93 142 168 152 157 178 162 163 161 136 159 206 151 194 241 235 211 177 166 162 152 146 147 147 141 135 132 129 127 122 119
355 113 31 13 57 150 127 111 58 354 119 166 265 287 328 336 347 339 327 326 328 317 301 318 344 344 324 138 176 173 150 154 170 163 178 183 204 237 197 172 168 177 174 168 180 223 73 144 256 283 202 151 175 204 191 183 164 123 146 178 175 114 131 145 143 117 124 140 157 147 209 250 242 212 178 168 165 159 154 148 142 135 130 130 129 126 123 122
309 86 28 18 78 147 117 77 57 37 130 201 307 293 320 335 326 311 313 313 307 280 272 287 290 281 299 325 208 166 148 152 173 169 196 193 180 220 216 181 159 158 157 171 196 197 152 166 200 288 171 178 219 220 174 174 171 159 166 184 177 139 117 133 208 256 108 126 159 155 195 254 259 228 177 170 166 162 152 140 132 132 130 127 126 125 125 124
5 91 35 27 75 163 129 50 302 117 100 70 314 297 314 329 307 301 308 310 287 258 254 270 261 243 236 222 218 185 149 153 178 179 173 192 187 202 219 187 156 154 152 164 201 192 149 132 161 247 224 208 241 261 180 180 165 143 161 177 156 136 127 141 191 226 110 103 132 119 146 263 270 269 193 163 149 142 138 130 123 126 128 126 125 125 125 124
35 17 10 31 29 106 105 45 325 348 2 290 303 300 294 293 280 283 290 288 275 256 250 256 241 224 215 203 192 171 138 140 177 192 180 191 210 218 204 177 160 158 153 163 188 178 164 138 121 274 284 288 301 325 166 167 136 122 168 157 145 157 149 145 171 182 133 134 140 102 186 266 262 248 147 125 120 122 130 130 125 124 126 127 128 129 128 126
19 349 329 14 13 28 90 114 316 324 301 295 301 286 263 254 253 257 267 262 246 267 281 268 247 245 252 122 131 197 185 125 177 197 190 194 222 219 194 178 175 169 163 182 182 172 200 184 99 109 2 350 323 33 97 156 171 173 186 168 157 134 112 115 137 107 110 189 164 138 203 260 245 131 121 120 120 121 127 132 129 129 131 132 132 131 130 129
345 45 327 342 11 31 104 136 68 248 283 290 279 271 257 248 247 247 255 254 238 240 265 274 282 299 319 45 29 301 232 140 172 192 194 218 254 219 191 188 188 183 183 183 164 157 184 180 124 140 148 159 195 192 184 185 194 198 147 160 167 136 128 139 120 96 132 214 148 144 197 231 148 133 133 134 133 130 133 134 131 131 132 135 136 133 134 136
10 95 2 342 10 16 171 140 331 289 303 295 279 280 252 244 266 249 245 253 247 233 237 262 276 296 9 38 17 342 320 322 125 150 171 228 266 249 197 190 188 188 185 172 156 140 140 165 153 151 167 181 192 219 225 165 143 159 137 145 175 160 140 120 105 138 177 161 157 199 179 151 152 155 150 150 148 143 144 143 139 137 136 139 138 134 134 136
31 84 71 140 3 332 289 293 285 268 288 304 310 314 271 263 289 268 240 246 247 224 213 246 275 69 59 38 9 350 328 331 10 56 70 253 259 288 249 188 185 188 182 169 162 137 113 183 188 153 173 218 217 225 209 127 122 147 125 119 156 152 137 128 149 189 155 133 217 232 165 157 172 172 163 162 159 155 154 153 148 142 139 138 133 129 129 130
359 77 240 295 344 209 238 254 243 238 254 265 282 294 285 283 287 280 256 256 260 233 177 47 23 52 74 99 121 359 328 339 360 1 12 359 299 315 352 18 180 190 183 169 168 148 128 182 193 123 47 340 328 294 112 103 104 94 93 93 61 118 153 154 173 183 146 147 211 196 170 175 181 178 175 170 163 157 150 146 140 135 134 133 132 134 137 140
350 76 253 302 284 226 244 253 242 240 241 234 237 252 264 280 281 278 279 281 308 3 58 75 35 16 29 65 98 45 319 14 7 338 17 3 310 20 46 15 347 212 180 164 172 167 146 177 162 108 62 2 340 339 75 100 105 67 55 42 44 71 135 128 137 156 132 137 176 162 164 191 202 179 172 155 140 136 132 131 134 136 138 138 141 145 146 149
3 302 261 287 264 254 265 269 256 245 240 231 239 254 258 275 292 305 309 318 353 4 27 66 95 12 19 45 85 178 244 161 219 293 358 1 337 49 77 223 288 329 145 153 179 201 151 192 148 100 77 348 337 352 45 86 97 75 42 22 46 66 64 61 89 122 95 82 127 135 141 238 321 135 133 126 128 131 136 142 143 144 145 144 147 152 153 154
321 290 262 257 274 262 246 250 227 201 238 240 237 275 285 279 308 335 316 316 29 44 26 31 101 59 26 33 73 233 258 239 239 262 280 282 285 85 76 258 234 170 114 134 163 133 116 136 64 91 100 285 317 5 38 77 85 73 37 14 27 61 68 48 61 158 135 123 118 120 145 201 175 133 126 132 140 141 146 149 146 150 153 150 152 158 158 155
334 315 294 262 274 296 298 291 261 158 185 242 254 296 284 272 307 335 283 284 24 70 39 9 136 94 21 340 317 279 280 269 262 273 282 272 99 86 58 291 258 141 133 125 97 108 124 127 124 111 132 234 280 323 339 71 80 63 322 331 65 64 99 93 21 211 152 134 132 155 188 171 149 139 138 144 150 154 157 155 150 150 150 150 155 158 156 154